Shelbyville, IN

1:09 AM EDT on May 01, 2017 (GMT -0400)
Shelbyville Municipal

Weather History for KGEZ - December, 2013

Change the Weather History Date:

Thursday, December 5, 2013

  Actual Average Record
Temperature  
Mean Temperature 44 °F 35 °F  
Max Temperature 61 °F 43 °F 66 °F (2001)
Min Temperature 27 °F 27 °F 3 °F (2007)
Degree Days  
Heating Degree Days 21 30  
Month to date heating degree days 96 146  
Since 1 July heating degree days 1162 1221  
Cooling Degree Days 0 0  
Month to date cooling degree days 0 0  
Year to date cooling degree days 1179 913  
Moisture  
Dew Point 32 °F    
Average Humidity 81    
Maximum Humidity 86    
Minimum Humidity 75    
Precipitation  
Precipitation 0.30 in 0.12 in 1.52 in (2014)
Month to date precipitation 0.31 0.55  
Year to date precipitation 29.55 40.84  
Sea Level Pressure  
Sea Level Pressure 30.03 in    
Wind  
Wind Speed 11 mph (NW)    
Max Wind Speed 18 mph    
Max Gust Speed 23 mph    
Visibility 7 miles    
Events Rain , Snow    
T = Trace of Precipitation, MM = Missing Value Source: NWS Daily Summary

Daily Weather History Graph

Daily Weather History Graph

Search for Another Location

Airport or City:

Trip Planner

Search our weather history database for the weather conditions in past years. The results will help you decide how hot, cold, wet, or windy it might be!

Date:

Astronomy

Dec. 05, 2013 Rise Set
Actual Time 7:48 AM EST 5:19 PM EST
Civil Twilight 7:18 AM EST 5:49 PM EST
Nautical Twilight 6:45 AM EST 6:22 PM EST
Astronomical Twilight 6:12 AM EST 6:55 PM EST
Moon 10:08 AM EST (12/5) 8:38 PM EST (12/5)
Length of Visible Light 10h 30m
Length of Day
9h 30m
Waxing Crescent, 10% of the Moon is Illuminated
Dec 5
Waxing Crescent
Dec 9
First Quarter
Dec 17
Full
Dec 25
Last Quarter
Jan 1
New

Hourly Weather History & Observations

Time (EST) Temp. Windchill Dew Point Humidity Pressure Visibility Wind Dir Wind Speed Gust Speed Precip Events Conditions
12:30 AM 57.0 °F - 53.1 °F 87% 29.75 in 10.0 mi SSW 6.9 mph - N/A   Mostly Cloudy
12:42 AM 57.9 °F - 53.1 °F 84% 29.74 in 10.0 mi South 8.1 mph - N/A   Mostly Cloudy
12:53 AM 57.9 °F - 53.1 °F 84% 29.74 in 10.0 mi South 9.2 mph - N/A   Mostly Cloudy
1:53 AM 59.0 °F - 53.1 °F 81% 29.74 in 10.0 mi SSW 10.4 mph - N/A   Partly Cloudy
2:53 AM 60.1 °F - 55.0 °F 83% 29.76 in 10.0 mi SW 9.2 mph - N/A   Overcast
3:23 AM 57.0 °F - 50.0 °F 77% 29.79 in 10.0 mi WNW 13.8 mph - N/A   Mostly Cloudy
3:53 AM 54.0 °F - 48.0 °F 80% 29.79 in 9.0 mi WNW 10.4 mph - N/A   Mostly Cloudy
4:53 AM 52.0 °F - 46.9 °F 83% 29.81 in 8.0 mi WNW 9.2 mph - N/A   Mostly Cloudy
5:53 AM 50.0 °F - 44.1 °F 80% 29.82 in 9.0 mi West 8.1 mph - N/A   Overcast
6:15 AM 50.0 °F - 43.0 °F 77% 29.84 in 9.0 mi West 13.8 mph - N/A   Overcast
6:53 AM 48.0 °F - 41.0 °F 77% 29.89 in 10.0 mi WNW 18.4 mph - N/A   Overcast
7:53 AM 46.0 °F 40.2 °F 39.0 °F 76% 29.92 in 8.0 mi WNW 12.7 mph - N/A   Overcast
8:09 AM 46.0 °F 40.6 °F 39.0 °F 76% 29.92 in 8.0 mi WNW 11.5 mph - N/A   Overcast
8:53 AM 45.0 °F 39.7 °F 37.9 °F 76% 29.94 in 8.0 mi WNW 10.4 mph - N/A   Overcast
9:36 AM 43.0 °F 35.1 °F 36.0 °F 76% 29.95 in 10.0 mi WNW 17.3 mph 23.0 mph N/A   Overcast
9:53 AM 42.1 °F 34.5 °F 35.1 °F 76% 29.99 in 9.0 mi WNW 15.0 mph - N/A   Overcast
10:17 AM 41.0 °F 32.8 °F 34.0 °F 76% 29.99 in 10.0 mi NW 16.1 mph - N/A   Overcast
10:53 AM 39.0 °F 30.3 °F 33.1 °F 79% 30.01 in 10.0 mi NW 16.1 mph - N/A   Overcast
11:50 AM 39.2 °F 31.2 °F 30.2 °F 70% 30.02 in 10.0 mi NW 13.8 mph - N/A   Overcast
11:53 AM 37.9 °F 30.5 °F 30.9 °F 76% 30.02 in 10.0 mi NW 11.5 mph - N/A   Overcast
12:53 PM 37.0 °F 29.3 °F 30.9 °F 79% 30.03 in 6.0 mi WNW 11.5 mph - 0.00 in Rain Light Rain
1:53 PM 37.0 °F 29.8 °F 30.9 °F 79% 30.02 in 8.0 mi WNW 10.4 mph - 0.00 in   Overcast
2:21 PM 37.0 °F 28.5 °F 28.9 °F 73% 30.03 in 10.0 mi NW 13.8 mph - N/A   Overcast
2:29 PM 37.0 °F 28.9 °F 28.9 °F 73% 30.03 in 10.0 mi WNW 12.7 mph - N/A   Overcast
2:46 PM 36.0 °F 27.1 °F 27.0 °F 70% 30.03 in 10.0 mi NW 13.8 mph - 0.01 in Rain Light Rain
2:53 PM 36.0 °F 28.0 °F 28.0 °F 73% 30.04 in 10.0 mi NNW 11.5 mph - 0.01 in Rain Light Rain
3:24 PM 36.0 °F 27.5 °F 28.0 °F 73% 30.04 in 8.0 mi NW 12.7 mph - 0.01 in Rain Light Rain
3:31 PM 36.0 °F 26.7 °F 28.0 °F 73% 30.05 in 9.0 mi NW 15.0 mph - 0.01 in Rain Light Rain
3:53 PM 35.1 °F 27.4 °F 28.0 °F 76% 30.08 in 10.0 mi NW 10.4 mph - 0.01 in Rain Light Rain
4:49 PM 33.8 °F 24.8 °F 28.4 °F 81% 30.11 in 5.0 mi WNW 12.7 mph - 0.05 in Rain Light Freezing Rain
4:53 PM 33.1 °F 24.9 °F 27.0 °F 78% 30.13 in 5.0 mi WNW 10.4 mph - 0.05 in Rain Light Freezing Rain
5:11 PM 33.1 °F 26.1 °F 28.0 °F 82% 30.12 in 5.0 mi NW 8.1 mph - 0.02 in Snow Light Snow
5:42 PM 32.0 °F 22.5 °F 28.0 °F 85% 30.09 in 6.0 mi NNW 12.7 mph - 0.08 in Rain Light Rain
5:50 PM 32.0 °F 22.5 °F 26.6 °F 80% 30.09 in 7.0 mi NNW 12.7 mph - 0.09 in Rain Light Freezing Rain
5:53 PM 32.0 °F 24.2 °F 28.0 °F 85% 30.10 in 7.0 mi NNW 9.2 mph - 0.09 in Rain Light Freezing Rain
6:53 PM 32.0 °F 23.6 °F 27.0 °F 82% 30.12 in 10.0 mi NNW 10.4 mph - 0.02 in Rain Light Freezing Rain
7:05 PM 30.9 °F 21.7 °F 27.0 °F 85% 30.11 in 10.0 mi NW 11.5 mph - 0.00 in Rain Light Freezing Rain
7:18 PM 30.9 °F 21.7 °F 26.1 °F 82% 30.12 in 8.0 mi NNW 11.5 mph - 0.01 in Rain Light Freezing Rain
7:53 PM 30.9 °F 21.2 °F 26.1 °F 82% 30.15 in 10.0 mi NW 12.7 mph - 0.02 in Rain Light Freezing Rain
7:59 PM 30.9 °F 20.7 °F 26.1 °F 82% 30.15 in 8.0 mi NW 13.8 mph - 0.00 in Snow Light Snow
8:10 PM 30.9 °F 21.7 °F 26.1 °F 82% 30.15 in 3.0 mi NW 11.5 mph - 0.00 in Snow Light Snow
8:18 PM 30.9 °F 21.2 °F 26.1 °F 82% 30.16 in 1.8 mi NW 12.7 mph - 0.00 in Snow Light Snow
8:26 PM 30.0 °F 22.4 °F 26.1 °F 85% 30.17 in 2.0 mi NW 8.1 mph - 0.00 in Snow Light Snow
8:36 PM 30.9 °F 21.2 °F 25.0 °F 79% 30.18 in 5.0 mi NW 12.7 mph - 0.00 in Snow Light Snow
8:51 PM 30.2 °F 21.3 °F 24.8 °F 80% 30.16 in 3.0 mi NW 10.4 mph - 0.00 in Snow Light Snow
8:53 PM 30.0 °F 20.0 °F 24.1 °F 79% 30.19 in 3.0 mi NW 12.7 mph - 0.00 in Snow Light Snow
8:59 PM 30.0 °F 21.1 °F 25.0 °F 82% 30.16 in 2.5 mi NW 10.4 mph - 0.01 in Snow Light Snow
9:15 PM 30.0 °F 22.4 °F 24.1 °F 79% 30.16 in 6.0 mi NNW 8.1 mph - 0.01 in Snow Light Snow
9:53 PM 30.0 °F 21.1 °F 24.1 °F 79% 30.19 in 10.0 mi NW 10.4 mph - 0.01 in   Overcast
10:04 PM 28.9 °F 20.4 °F 24.1 °F 82% 30.18 in 1.8 mi NW 9.2 mph - 0.01 in Snow Light Snow
10:28 PM 28.0 °F 22.8 °F 24.1 °F 85% 30.17 in 1.0 mi NW 4.6 mph - 0.03 in Snow Light Snow
10:53 PM 28.0 °F 20.0 °F 24.1 °F 85% 30.18 in 1.8 mi NNW 8.1 mph - 0.05 in Snow Light Snow
11:03 PM 28.0 °F 20.0 °F 25.0 °F 88% 30.18 in 1.5 mi NW 8.1 mph - 0.01 in Snow Light Snow
11:28 PM 28.0 °F 19.3 °F 24.1 °F 85% 30.19 in 2.5 mi NNW 9.2 mph - 0.02 in Snow Light Snow
11:37 PM 28.0 °F 20.8 °F 24.1 °F 85% 30.18 in 2.0 mi North 6.9 mph - 0.02 in Snow Light Snow
11:53 PM 28.0 °F 20.0 °F 24.1 °F 85% 30.20 in 1.8 mi NW 8.1 mph - 0.04 in Snow Light Snow